This demonstration page uses our WeatherBlox Daily Observations layout. Learn more.

Left ArrowRight Arrow

44.8408, -93.29828

Hourly Observations for August 18, 2019

Temp ( °F °C ) Dew Point ( °F °C ) Humidity (%) Winds ( mph kmh ) Pressure ( in mb ) Visibility ( mi km ) Precip ( " mm )
12:53 am 00:53 Cloudy with Nearby Thunderstorms 70 21.1 67 19.4 90 90 SE 13 20 29.67 1005 9 14 0.00 0.00
1:08 am 01:08 Mostly Cloudy with Thunderstorms 70 21.1 67 19.4 90 90 SSE 10 17 29.65 1004 5 8 0.02 0.51
1:34 am 01:34 Cloudy with Nearby Thunderstorms 70 21.1 67 19.4 90 90 N 9 15 29.61 1003 10 16 0.24 6.10
1:46 am 01:46 Cloudy with Light Rain 70 21.1 67 19.4 90 90 N 9 15 29.61 1003 10 16 0.25 6.35
1:51 am 01:51 Windy with Storms Likely 70 21 66 19 88 88 N 20 31 29.63 1003 10 16 0.25 6.35
1:53 am 01:53 Cloudy with Thunderstorms 68 20 65 18.3 90 90 N 15 24 29.63 1003 10 16 0.25 6.35
2:07 am 02:07 Cloudy with Nearby Thunderstorms 67 19.4 64 17.8 91 91 N 17 28 29.61 1003 10 16 0.00 0.00
2:16 am 02:16 Windy with Storms Likely 68 20 63 17.2 84 84 NNE 21 33 29.62 1003 3 5 0.00 0.00
2:19 am 02:19 Cloudy with Strong Thunderstorms 67 19.4 63 17.2 87 87 NNE 15 24 29.61 1003 2 3 0.00 0.00
2:26 am 02:26 Cloudy with Thunderstorms 66 18.9 63 17.2 90 90 N 15 24 29.60 1002 2 3 0.14 3.56
2:29 am 02:29 Cloudy with Nearby Thunderstorms 66 18.9 63 17.2 90 90 N 12 19 29.60 1002 3 5 0.14 3.56
2:53 am 02:53 Cloudy with Nearby Thunderstorms 65 18.3 63 17.2 93 93 NE 20 31 29.56 1001 3 4 0.31 7.87
3:01 am 03:01 Cloudy with Heavy Rain 65 18.3 63 17.2 93 93 NNE 10 17 29.58 1002 3 4 0.06 1.52
3:11 am 03:11 Cloudy with Heavy Rain 65 18.3 64 17.8 97 97 SSW 15 24 29.65 1004 1 2 0.12 3.05
3:13 am 03:13 Cloudy with Heavy Rain 65 18.3 64 17.8 97 97 SW 15 24 29.65 1004 1 1 0.17 4.32
3:24 am 03:24 Cloudy with Heavy Rain 65 18.3 63 17.2 93 93 WNW 18 30 29.64 1004 1 1 0.65 16.51
3:49 am 03:49 Cloudy with Rain 64 18 63 17 94 94 NNW 13 20 29.65 1004 2 2 1.09 27.69
3:53 am 03:53 Cloudy with Rain 65 18.3 63 17.2 93 93 NNW 13 20 29.65 1004 2 3 1.10 27.94
3:57 am 03:57 Cloudy with Rain 65 18.3 63 17.2 93 93 NW 14 22 29.64 1004 3 5 0.02 0.51
4:53 am 04:53 Mostly Cloudy with Light Rain 65 18.3 62 16.7 90 90 N 3 6 29.56 1001 10 16 0.07 1.78
5:31 am 05:31 Mostly Cloudy 65 18.3 62 16.7 90 90 NW 8 13 29.57 1001 10 16 0.01 0.25
5:53 am 05:53 Cloudy 65 18.3 62 16.7 90 90 WNW 10 17 29.62 1003 10 16 0.01 0.25
6:03 am 06:03 Mostly Cloudy 65 18.3 62 16.7 90 90 WNW 13 20 29.63 1004 10 16 0.00 0.00
6:10 am 06:10 Mostly Cloudy 65 18.3 62 16.7 90 90 WNW 13 20 29.64 1004 10 16 0.00 0.00
6:17 am 06:17 Cloudy 65 18.3 62 16.7 90 90 WNW 10 17 29.65 1004 10 16 0.00 0.00
6:53 am 06:53 Cloudy 65 18.3 62 16.7 90 90 WNW 7 11 29.68 1005 10 16 0.00 0.00
7:49 am 07:49 Cloudy 66 19 63 17 88 88 W 6 9 29.72 1006 10 16 0.00 0.00
7:53 am 07:53 Cloudy 66 18.9 62 16.7 87 87 W 6 9 29.73 1007 10 16 0.00 0.00
8:11 am 08:11 Cloudy 66 18.9 62 16.7 87 87 W 10 17 29.73 1007 10 16 0.00 0.00
8:41 am 08:41 Cloudy 66 18.9 62 16.7 87 87 WNW 9 15 29.75 1008 10 16 0.00 0.00
8:53 am 08:53 Cloudy 67 19.4 62 16.7 84 84 W 9 15 29.76 1008 10 16 0.00 0.00
9:53 am 09:53 Cloudy 68 20 62 16.7 81 81 W 8 13 29.78 1008 10 16 0.00 0.00
10:53 am 10:53 Cloudy 69 20.6 62 16.7 78 78 W 10 17 29.79 1009 10 16 0.00 0.00
11:10 am 11:10 Cloudy 71 21.7 63 17.2 76 76 W 8 13 29.77 1008 10 16 0.00 0.00
11:53 am 11:53 Mostly Cloudy 72 22.2 60 15.6 66 66 WNW 14 22 29.79 1009 10 16 0.00 0.00
12:53 pm 12:53 Mostly Cloudy 73 22.8 58 14.4 59 59 W 17 28 29.81 1010 10 16 0.00 0.00
1:53 pm 13:53 Partly Cloudy 73 22.8 56 13.3 55 55 W 15 24 29.82 1010 10 16 0.00 0.00
2:53 pm 14:53 Partly Cloudy 74 23.3 54 12.2 50 50 W 17 28 29.83 1010 10 16 0.00 0.00
3:53 pm 15:53 Mostly Sunny 74 23.3 53 11.7 48 48 NW 16 26 29.83 1010 10 16 0.00 0.00
4:53 pm 16:53 Mostly Sunny 75 23.9 52 11.1 45 45 NW 15 24 29.85 1011 10 16 0.00 0.00
5:53 pm 17:53 Mostly Sunny 74 23.3 50 10 43 43 WNW 10 17 29.85 1011 10 16 0.00 0.00
6:53 pm 18:53 Mostly Sunny 73 22.8 50 10 44 44 NW 9 15 29.86 1011 10 16 0.00 0.00
7:53 pm 19:53 Sunny 69 20.6 49 9.4 49 49 WNW 7 11 29.86 1011 10 16 0.00 0.00
8:53 pm 20:53 Clear 68 20 50 10 53 53 WNW 3 6 29.88 1012 10 16 0.00 0.00
9:53 pm 21:53 Clear 64 17.8 51 10.6 63 63 WNW 6 9 29.90 1013 10 16 0.00 0.00
10:53 pm 22:53 Clear 63 17.2 51 10.6 65 65 WNW 5 7 29.92 1013 10 16 0.00 0.00
11:53 pm 23:53 Clear 61 16.1 52 11.1 72 72 WNW 3 6 29.93 1014 10 16 0.00 0.00

Powered by AerisWeather